This is the latest recevied weather packets stored in our database for station/object WW4HG. If no packets are shown the sender has not sent any weather packets the latest 10 day(s).
| Time | Temp. | Humidity | Pressure | Rain* | Wind** | Luminosity | Snow |
|---|---|---|---|---|---|---|---|
| 1777635909 | 16.11° C | 81% | 1014 hPa | 0 mm | - | 18 W/m² | - |
| 1777635605 | 16.11° C | 81% | 1014 hPa | 0 mm | - | 25 W/m² | - |
| 1777635303 | 16.11° C | 81% | 1014 hPa | 0 mm | - | 20 W/m² | - |
| 1777634999 | 16.11° C | 82% | 1014 hPa | 0 mm | - | 16 W/m² | - |
| 1777634695 | 16.11° C | 82% | 1014.3 hPa | 0 mm | - | 20 W/m² | - |
| 1777634394 | 16.11° C | 82% | 1014 hPa | 0 mm | - | 18 W/m² | - |
| 1777634090 | 16.11° C | 82% | 1014 hPa | 0 mm | - | 18 W/m² | - |
| 1777633786 | 16.11° C | 82% | 1014 hPa | 0 mm | - | 18 W/m² | - |
| 1777633484 | 16.11° C | 82% | 1014.3 hPa | 0 mm | - | 14 W/m² | - |
| 1777633181 | 16.11° C | 83% | 1014.3 hPa | 0 mm | - | 10 W/m² | - |
| 1777632873 | 16.11° C | 82% | 1014.3 hPa | 0 mm | - | 8 W/m² | - |
| 1777632568 | 16.11° C | 82% | 1014.3 hPa | 0 mm | - | 6 W/m² | - |
| 1777632266 | 16.11° C | 82% | 1014 hPa | 0 mm | - | 4 W/m² | - |
| 1777631962 | 16.11° C | 82% | 1014 hPa | 0 mm | - | 2 W/m² | - |
| 1777631661 | 16.11° C | 82% | 1014 hPa | 0 mm | - | 1 W/m² | - |
| 1777631358 | 16.11° C | 81% | 1013.6 hPa | 0 mm | - | 1 W/m² | - |
| 1777631055 | 16.11° C | 82% | 1013.6 hPa | 0 mm | - | 0 W/m² | - |
| 1777630751 | 16.11° C | 82% | 1013.6 hPa | 0 mm | - | 0 W/m² | - |
| 1777630448 | 16.11° C | 82% | 1013.3 hPa | 0 mm | - | 0 W/m² | - |
| 1777630145 | 16.11° C | 82% | 1013.3 hPa | 0 mm | - | 0 W/m² | - |
| 1777629843 | 16.11° C | 82% | 1012.9 hPa | 0 mm | - | 0 W/m² | - |
| 1777629540 | 16.11° C | 82% | 1013.3 hPa | 0 mm | - | 0 W/m² | - |
| 1777629236 | 16.11° C | 82% | 1012.9 hPa | 0 mm | - | 0 W/m² | - |
| 1777628932 | 16.11° C | 82% | 1012.9 hPa | 0 mm | - | 0 W/m² | - |
| 1777628629 | 16.11° C | 82% | 1013.3 hPa | 0 mm | - | 0 W/m² | - |
* Rain latest hour (hover to see other rain measurements)
** Current wind speed in m/s (hover to see current wind gust speed)